This demonstration page uses our WeatherBlox Daily Observations layout. Learn more.

Hourly Observations for August 9, 2015

Temp ( °F °C ) Dew Point ( °F °C ) Humidity (%) Winds ( mph kmh ) Pressure ( in mb ) Visibility ( mi km ) Precip ( " mm )
12:15 am 00:15 Clear 72 22 69 20.8 93 93 Calm 29.83 1010 10 16.0934 0 0
12:35 am 00:35 Partly Cloudy 72 22.2 69 20.8 92 92 Calm 29.83 1010 10 16.0934 0 0
12:55 am 00:55 Mostly Cloudy 71 21.7 69 20.6 94 94 Calm 29.83 1010 7 11.26538 0 0
1:15 am 01:15 Cloudy 72 22 70 20.9 94 94 Calm 29.83 1010 7 11.26538 0 0
1:35 am 01:35 Partly Cloudy 71 21.9 69 20.7 93 93 Calm 29.83 1010 7 11.26538 0 0
1:55 am 01:55 Clear 70 21.3 69 20.3 94 94 Calm 29.83 1010 7 11.26538 0 0
2:15 am 02:15 Clear with Mist and Fog 70 21 68 20.1 95 95 Calm 29.8 1009 5 8.0467 0 0
2:35 am 02:35 Clear with Mist and Fog 69 20.8 68 20 95 95 Calm 29.8 1009 5 8.0467 0 0
2:55 am 02:55 Clear with Mist and Fog 70 21 68 20.1 95 95 NNW 3 6 29.8 1009 5 8.0467 0 0
3:15 am 03:15 Clear with Mist and Fog 69 20.8 68 20 95 95 Calm 29.8 1009 4 6.43736 0 0
3:35 am 03:35 Clear with Mist and Fog 69 20.5 67 19.6 95 95 N 5 7 29.8 1009 3 4.82802 0 0
3:55 am 03:55 Clear with Mist and Fog 69 20.8 68 20 95 95 N 3 6 29.8 1009 4 6.43736 0 0
4:15 am 04:15 Clear with Mist and Fog 69 20.5 67 19.7 95 95 N 3 6 29.8 1009 3 4.82802 0 0
4:35 am 04:35 Clear with Mist and Fog 69 20.3 67 19.5 95 95 N 3 6 29.8 1009 3 4.82802 0 0
4:55 am 04:55 Clear with Mist and Fog 69 20.7 68 20 96 96 N 5 7 29.83 1010 4 6.43736 0 0
5:15 am 05:15 Clear with Mist and Fog 69 20.5 67 19.6 95 95 Calm 29.83 1010 4 6.43736 0 0
5:35 am 05:35 Clear with Mist and Fog 69 20.5 67 19.7 95 95 N 5 7 29.83 1010 4 6.43736 0 0
5:55 am 05:55 Clear with Mist and Fog 69 20.7 68 19.9 95 95 N 7 11 29.83 1010 4 6.43736 0 0
6:15 am 06:15 Clear with Mist and Fog 69 20.8 68 20 95 95 NNE 6 9 29.83 1010 4 6.43736 0 0
6:35 am 06:35 Clear with Mist and Fog 69 20.8 68 20 95 95 N 7 11 29.83 1010 5 8.0467 0 0
6:55 am 06:55 Sunny with Mist and Fog 70 20.9 68 20 95 95 NNE 7 11 29.88 1012 4 6.43736 0 0
7:15 am 07:15 Mostly Cloudy with Mist and Fog 70 21.2 69 20.3 95 95 E 5 7 29.88 1012 5 8.0467 0 0
7:35 am 07:35 Cloudy with Mist and Fog 71 21.5 69 20.6 95 95 ESE 6 9 29.88 1012 4 6.43736 0 0
7:55 am 07:55 Cloudy with Mist and Fog 71 21.5 69 20.5 94 94 SSE 5 7 29.88 1012 4 6.43736 0 0
8:15 am 08:15 Cloudy with Mist and Fog 71 21.7 69 20.6 94 94 SE 3 6 29.88 1012 4 6.43736 0 0
8:35 am 08:35 Mostly Cloudy with Mist and Fog 72 22.1 69 20.6 91 91 ESE 3 6 29.88 1012 5 8.0467 0 0
8:55 am 08:55 Mostly Cloudy 73 22.7 70 20.9 90 90 SE 3 6 29.85 1011 7 11.26538 0 0
9:15 am 09:15 Partly Cloudy 74 23.6 70 20.9 85 85 E 5 7 29.85 1011 10 16.0934 0 0
9:35 am 09:35 Sunny 75 24.1 70 21 83 83 ESE 6 9 29.85 1011 10 16.0934 0 0
9:55 am 09:55 Partly Cloudy 76 24.5 70 20.9 80 80 E 7 11 29.85 1011 10 16.0934 0 0
10:15 am 10:15 Partly Cloudy 76 24.7 70 21.3 81 81 ESE 3 6 29.85 1011 10 16.0934 0 0
10:35 am 10:35 Mostly Cloudy 77 25 70 21.3 80 80 ENE 5 7 29.85 1011 10 16.0934 0 0
10:55 am 10:55 Partly Cloudy 78 25.8 70 21.3 76 76 E 6 9 29.85 1011 10 16.0934 0 0
11:15 am 11:15 Sunny 79 26.1 70 21.2 74 74 E 6 9 29.85 1011 10 16.0934 0 0
11:35 am 11:35 Partly Cloudy 80 26.5 70 21.2 73 73 ESE 6 9 29.83 1010 10 16.0934 0 0
11:55 am 11:55 Mostly Cloudy 80 26.7 71 21.4 73 73 SE 5 7 29.83 1010 10 16.0934 0 0
12:15 pm 12:15 Partly Cloudy 81 27.3 70 21.2 69 69 SE 6 9 29.83 1010 10 16.0934 0 0
12:35 pm 12:35 Partly Cloudy 82 27.7 70 21 67 67 SSW 6 9 29.83 1010 10 16.0934 0 0
12:55 pm 12:55 Mostly Cloudy 82 27.9 70 21.2 67 67 Calm 29.83 1010 10 16.0934 0 0
1:15 pm 13:15 Mostly Cloudy 81 27.4 70 20.9 68 68 ESE 5 7 29.83 1010 10 16.0934 0 0
1:35 pm 13:35 Mostly Cloudy 83 28.4 69 20.5 62 62 SE 3 6 29.83 1010 10 16.0934 0 0
1:55 pm 13:55 Partly Cloudy 83 28.3 69 20.6 63 63 Calm 29.83 1010 10 16.0934 0 0
2:15 pm 14:15 Mostly Cloudy 83 28.6 68 20.1 60 60 Calm 29.83 1010 10 16.0934 0 0
2:35 pm 14:35 Mostly Cloudy 84 29.1 70 21 62 62 Calm 29.83 1010 10 16.0934 0 0
2:55 pm 14:55 Partly Cloudy 84 28.7 70 21 63 63 E 3 6 29.83 1010 10 16.0934 0 0
3:15 pm 15:15 Mostly Cloudy 83 28.4 71 21.7 67 67 N 3 6 29.83 1010 10 16.0934 0 0
3:35 pm 15:35 Partly Cloudy 85 29.2 71 21.8 64 64 N 5 7 29.83 1010 10 16.0934 0 0
3:55 pm 15:55 Partly Cloudy 83 28.3 71 21.4 66 66 Calm 29.83 1010 10 16.0934 0 0
4:15 pm 16:15 Sunny 84 28.8 71 21.6 65 65 Calm 29.83 1010 10 16.0934 0 0
4:35 pm 16:35 Sunny 85 29.3 71 21.7 64 64 NNE 3 6 29.83 1010 10 16.0934 0 0
4:55 pm 16:55 Sunny 85 29.6 71 21.7 63 63 Calm 29.83 1010 10 16.0934 0 0
5:15 pm 17:15 Sunny 85 29.5 71 21.8 63 63 Calm 29.83 1010 10 16.0934 0 0
5:35 pm 17:35 Sunny 84 29.1 70 21.2 62 62 Calm 29.83 1010 10 16.0934 0 0
5:55 pm 17:55 Sunny 84 29.1 70 21.3 63 63 Calm 29.83 1010 10 16.0934 0 0
6:15 pm 18:15 Sunny 85 29.3 71 21.9 64 64 Calm 29.83 1010 10 16.0934 0 0
6:35 pm 18:35 Sunny 84 29.1 71 21.7 64 64 Calm 29.83 1010 10 16.0934 0 0
6:55 pm 18:55 Sunny 84 29 71 21.4 64 64 Calm 29.8 1009 10 16.0934 0 0
7:15 pm 19:15 Sunny 84 28.8 72 22 67 67 Calm 29.8 1009 10 16.0934 0 0
7:35 pm 19:35 Sunny 83 28.5 73 22.5 70 70 Calm 29.8 1009 10 16.0934 0 0
7:55 pm 19:55 Sunny 82 28 73 22.6 73 73 Calm 29.8 1009 10 16.0934 0 0
8:15 pm 20:15 Sunny 81 27.3 74 23.4 79 79 Calm 29.83 1010 10 16.0934 0 0
8:35 pm 20:35 Sunny 80 26.6 74 23.2 82 82 Calm 29.83 1010 10 16.0934 0 0
8:55 pm 20:55 Clear 80 26.5 73 22.7 80 80 Calm 29.83 1010 10 16.0934 0 0
9:15 pm 21:15 Clear 78 25.5 73 22.5 84 84 Calm 29.85 1011 10 16.0934 0 0
9:35 pm 21:35 Clear 76 24.6 72 22 86 86 Calm 29.85 1011 10 16.0934 0 0
9:55 pm 21:55 Clear 74 23.4 71 21.7 90 90 Calm 29.91 1013 10 16.0934 0 0
10:15 pm 22:15 Clear 76 24.6 71 21.7 84 84 Calm 29.88 1012 10 16.0934 0 0
10:35 pm 22:35 Clear 76 24.4 72 22 87 87 S 3 6 29.88 1012 10 16.0934 0 0
10:55 pm 22:55 Clear 74 23.4 71 21.4 89 89 Calm 29.91 1013 10 16.0934 0 0
11:15 pm 23:15 Clear 72 22.2 69 20.8 92 92 Calm 29.94 1014 7 11.26538 0 0
11:35 pm 23:35 Clear 71 21.5 68 20.2 92 92 Calm 29.94 1014 7 11.26538 0 0
11:55 pm 23:55 Clear 71 21.7 69 20.4 92 92 Calm 29.94 1014 7 11.26538 0 0

Powered by AerisWeather